Location: Beacon Field Observatory
(38.7700°N, 77.0829°W)
Time: 01:30:19
(UTC-05:00)

UKube-1 - Pass Details

Date: 13 December 2019
Orbit: 613 x 619 km, 98.5° (Epoch: 27 January)

Event Time Altitude Azimuth Distance (km) Brightness Sun altitude
Rises 18:34:03 0° 358° (N) 2,899 ? -20.1°
Reaches altitude 10° 18:36:34 10° 345° (NNW) 1,989 ? -20.6°
Maximum altitude 18:39:59 23° 292° (WNW) 1,316 ? -21.3°
Drops below altitude 10° 18:43:23 10° 240° (WSW) 1,980 ? -21.9°
Sets 18:45:53 0° 226° (SW) 2,881 ? -22.4°
